Time,TemperatureF,DewpointF,PressureIn,WindDirection,WindDirectionDegrees,WindSpeedMPH,WindSpeedGustMPH,Humidity,HourlyPrecipIn,Conditions,Clouds,dailyrainin,SoftwareType,DateUTC
2013-08-19 00:01:00,60.0,14.0,30.12,ESE,112,0.0,7.0,15,0.00,,,0.00,Rainwise IP-100,2013-08-19 04:01:00,
2013-08-19 00:02:00,60.0,26.0,30.12,SSE,157,0.0,7.0,26,0.00,,,0.00,Rainwise IP-100,2013-08-19 04:02:00,
2013-08-19 00:07:00,60.0,33.0,30.11,ESE,112,0.0,6.0,36,0.00,,,0.00,Rainwise IP-100,2013-08-19 04:07:00,
2013-08-19 00:12:00,60.0,33.0,30.11,East,90,2.0,7.0,36,0.00,,,0.00,Rainwise IP-100,2013-08-19 04:12:00,
2013-08-19 00:17:00,60.0,28.0,30.10,ESE,112,3.0,9.0,28,0.00,,,0.00,Rainwise IP-100,2013-08-19 04:17:00,
2013-08-19 00:22:00,59.0,23.0,30.10,ESE,112,0.0,4.0,23,0.00,,,0.00,Rainwise IP-100,2013-08-19 04:22:00,
2013-08-19 00:27:00,59.0,23.0,30.10,SSE,157,0.0,4.0,23,0.00,,,0.00,Rainwise IP-100,2013-08-19 04:27:00,
2013-08-19 00:33:00,59.0,26.0,30.10,SE,135,0.0,8.0,28,0.00,,,0.00,Rainwise IP-100,2013-08-19 04:33:00,
2013-08-19 00:38:00,59.0,18.0,30.10,East,90,0.0,7.0,19,0.00,,,0.00,Rainwise IP-100,2013-08-19 04:38:00,
2013-08-19 00:43:00,59.0,11.0,30.10,East,90,0.0,9.0,13,0.00,,,0.00,Rainwise IP-100,2013-08-19 04:43:00,
2013-08-19 00:48:00,59.0,23.0,30.09,East,90,0.0,6.0,23,0.00,,,0.00,Rainwise IP-100,2013-08-19 04:48:00,
2013-08-19 00:53:00,59.0,23.0,30.10,SE,135,2.0,4.0,24,0.00,,,0.00,Rainwise IP-100,2013-08-19 04:53:00,
2013-08-19 00:58:00,59.0,23.0,30.10,ESE,112,0.0,6.0,24,0.00,,,0.00,Rainwise IP-100,2013-08-19 04:58:00,
2013-08-19 01:03:00,59.0,-13.0,30.10,East,90,0.0,5.0,3,0.00,,,0.00,Rainwise IP-100,2013-08-19 05:03:00,
2013-08-19 01:08:00,59.0,29.0,30.10,SE,135,1.0,4.0,31,0.00,,,0.00,Rainwise IP-100,2013-08-19 05:08:00,
2013-08-19 01:13:00,60.0,-23.0,30.08,SE,135,0.0,2.0,0,0.00,,,0.00,Rainwise IP-100,2013-08-19 05:13:00,
2013-08-19 01:18:00,59.0,31.0,30.08,East,90,0.0,2.0,33,0.00,,,0.00,Rainwise IP-100,2013-08-19 05:18:00,
2013-08-19 01:23:00,60.0,-23.0,30.08,East,90,2.0,5.0,0,0.00,,,0.00,Rainwise IP-100,2013-08-19 05:23:00,
2013-08-19 01:28:00,59.0,33.0,30.08,NE,45,0.0,6.0,38,0.00,,,0.00,Rainwise IP-100,2013-08-19 05:28:00,
2013-08-19 01:33:00,60.0,24.0,30.08,East,90,0.0,4.0,25,0.00,,,0.00,Rainwise IP-100,2013-08-19 05:33:00,
2013-08-19 01:38:00,60.0,26.0,30.08,East,90,0.0,1.0,27,0.00,,,0.00,Rainwise IP-100,2013-08-19 05:38:00,
2013-08-19 01:43:00,60.0,31.0,30.07,East,90,0.0,3.0,33,0.00,,,0.00,Rainwise IP-100,2013-08-19 05:43:00,
2013-08-19 01:49:00,60.0,28.0,30.07,East,90,0.0,2.0,28,0.00,,,0.00,Rainwise IP-100,2013-08-19 05:49:00,
2013-08-19 01:54:00,60.0,24.0,30.08,NE,45,0.0,4.0,25,0.00,,,0.00,Rainwise IP-100,2013-08-19 05:54:00,
2013-08-19 01:59:00,60.0,24.0,30.08,ENE,67,1.0,3.0,25,0.00,,,0.00,Rainwise IP-100,2013-08-19 05:59:00,
2013-08-19 02:04:00,60.0,0.0,30.08,East,90,0.0,3.0,8,0.00,,,0.00,Rainwise IP-100,2013-08-19 06:04:00,
2013-08-19 02:09:00,60.0,29.0,30.08,ENE,67,0.0,3.0,30,0.00,,,0.00,Rainwise IP-100,2013-08-19 06:09:00,
2013-08-19 02:14:00,60.0,33.0,30.08,ENE,67,1.0,2.0,36,0.00,,,0.00,Rainwise IP-100,2013-08-19 06:14:00,
2013-08-19 02:19:00,60.0,24.0,30.08,ENE,67,0.0,3.0,25,0.00,,,0.00,Rainwise IP-100,2013-08-19 06:19:00,
2013-08-19 02:24:00,60.0,28.0,30.08,East,90,0.0,1.0,28,0.00,,,0.00,Rainwise IP-100,2013-08-19 06:24:00,
2013-08-19 02:29:00,60.0,26.0,30.08,NE,45,0.0,1.0,26,0.00,,,0.00,Rainwise IP-100,2013-08-19 06:29:00,
2013-08-19 02:34:00,60.0,31.0,30.08,NE,45,0.0,0.0,33,0.00,,,0.00,Rainwise IP-100,2013-08-19 06:34:00,
2013-08-19 02:39:00,60.0,23.0,30.08,NE,45,0.0,1.0,24,0.00,,,0.00,Rainwise IP-100,2013-08-19 06:39:00,
2013-08-19 02:44:00,60.0,36.0,30.08,East,90,0.0,2.0,40,0.00,,,0.00,Rainwise IP-100,2013-08-19 06:44:00,
2013-08-19 02:49:00,60.0,28.0,30.08,East,90,0.0,0.0,29,0.00,,,0.00,Rainwise IP-100,2013-08-19 06:49:00,
2013-08-19 02:54:00,60.0,32.0,30.07,East,90,0.0,0.0,34,0.00,,,0.00,Rainwise IP-100,2013-08-19 06:54:00,
2013-08-19 02:59:00,60.0,31.0,30.07,NE,45,0.0,2.0,33,0.00,,,0.00,Rainwise IP-100,2013-08-19 06:59:00,
2013-08-19 03:05:00,60.0,33.0,30.07,NE,45,0.0,1.0,36,0.00,,,0.00,Rainwise IP-100,2013-08-19 07:05:00,
2013-08-19 03:10:00,60.0,21.0,30.07,NE,45,0.0,0.0,22,0.00,,,0.00,Rainwise IP-100,2013-08-19 07:10:00,
2013-08-19 03:15:00,61.0,29.0,30.07,NE,45,0.0,0.0,29,0.00,,,0.00,Rainwise IP-100,2013-08-19 07:15:00,
2013-08-19 03:20:00,60.0,28.0,30.07,NE,45,0.0,0.0,28,0.00,,,0.00,Rainwise IP-100,2013-08-19 07:20:00,
2013-08-19 03:25:00,60.0,28.0,30.08,NE,45,0.0,0.0,28,0.00,,,0.00,Rainwise IP-100,2013-08-19 07:25:00,
2013-08-19 03:30:00,60.0,32.0,30.08,NE,45,0.0,0.0,35,0.00,,,0.00,Rainwise IP-100,2013-08-19 07:30:00,
2013-08-19 03:35:00,60.0,29.0,30.08,NE,45,0.0,0.0,30,0.00,,,0.00,Rainwise IP-100,2013-08-19 07:35:00,
2013-08-19 03:40:00,60.0,23.0,30.08,NE,45,0.0,0.0,24,0.00,,,0.00,Rainwise IP-100,2013-08-19 07:40:00,
2013-08-19 03:45:00,60.0,29.0,30.07,NE,45,0.0,0.0,31,0.00,,,0.00,Rainwise IP-100,2013-08-19 07:45:00,
2013-08-19 03:50:00,59.0,24.0,30.07,NE,45,0.0,0.0,26,0.00,,,0.00,Rainwise IP-100,2013-08-19 07:50:00,
2013-08-19 03:55:00,59.0,35.0,30.08,NE,45,0.0,0.0,39,0.00,,,0.00,Rainwise IP-100,2013-08-19 07:55:00,
2013-08-19 04:00:00,59.0,33.0,30.08,SW,225,2.0,4.0,38,0.00,,,0.00,Rainwise IP-100,2013-08-19 08:00:00,
2013-08-19 04:05:00,59.0,26.0,30.09,SW,225,2.0,4.0,27,0.00,,,0.00,Rainwise IP-100,2013-08-19 08:05:00,
2013-08-19 04:10:00,59.0,29.0,30.09,SW,225,1.0,3.0,32,0.00,,,0.00,Rainwise IP-100,2013-08-19 08:10:00,
2013-08-19 04:15:00,59.0,31.0,30.09,SW,225,0.0,2.0,33,0.00,,,0.00,Rainwise IP-100,2013-08-19 08:15:00,
2013-08-19 04:21:00,59.0,31.0,30.09,SW,225,1.0,2.0,33,0.00,,,0.00,Rainwise IP-100,2013-08-19 08:21:00,
2013-08-19 04:26:00,59.0,33.0,30.09,SW,225,1.0,2.0,38,0.00,,,0.00,Rainwise IP-100,2013-08-19 08:26:00,
2013-08-19 04:31:00,59.0,26.0,30.09,SW,225,1.0,3.0,27,0.00,,,0.00,Rainwise IP-100,2013-08-19 08:31:00,
2013-08-19 04:36:00,59.0,24.0,30.09,SW,225,2.0,4.0,25,0.00,,,0.00,Rainwise IP-100,2013-08-19 08:36:00,
2013-08-19 04:41:00,58.0,29.0,30.09,SW,225,0.0,2.0,33,0.00,,,0.00,Rainwise IP-100,2013-08-19 08:41:00,
2013-08-19 04:46:00,58.0,28.0,30.10,SW,225,0.0,3.0,30,0.00,,,0.00,Rainwise IP-100,2013-08-19 08:46:00,
2013-08-19 04:51:00,58.0,16.0,30.10,SW,225,0.0,2.0,18,0.00,,,0.00,Rainwise IP-100,2013-08-19 08:51:00,
2013-08-19 04:56:00,58.0,21.0,30.10,SW,225,0.0,1.0,23,0.00,,,0.00,Rainwise IP-100,2013-08-19 08:56:00,
2013-08-19 05:01:00,58.0,14.0,30.10,SW,225,0.0,2.0,17,0.00,,,0.00,Rainwise IP-100,2013-08-19 09:01:00,
2013-08-19 05:06:00,58.0,31.0,30.09,WSW,247,0.0,1.0,34,0.00,,,0.00,Rainwise IP-100,2013-08-19 09:06:00,
2013-08-19 05:11:00,58.0,16.0,30.09,WSW,247,0.0,0.0,19,0.00,,,0.00,Rainwise IP-100,2013-08-19 09:11:00,
2013-08-19 05:16:00,58.0,24.0,30.10,WSW,247,0.0,0.0,26,0.00,,,0.00,Rainwise IP-100,2013-08-19 09:16:00,
2013-08-19 05:21:00,58.0,21.0,30.10,WSW,247,0.0,0.0,22,0.00,,,0.00,Rainwise IP-100,2013-08-19 09:21:00,
2013-08-19 05:26:00,58.0,23.0,30.10,WSW,247,0.0,0.0,24,0.00,,,0.00,Rainwise IP-100,2013-08-19 09:26:00,
2013-08-19 05:31:00,58.0,28.0,30.10,WSW,247,0.0,0.0,31,0.00,,,0.00,Rainwise IP-100,2013-08-19 09:31:00,
2013-08-19 05:37:00,58.0,31.0,30.10,WSW,247,0.0,0.0,35,0.00,,,0.00,Rainwise IP-100,2013-08-19 09:37:00,
2013-08-19 05:42:00,58.0,31.0,30.10,WSW,247,0.0,0.0,35,0.00,,,0.00,Rainwise IP-100,2013-08-19 09:42:00,
2013-08-19 05:47:00,58.0,33.0,30.09,WSW,247,0.0,0.0,38,0.00,,,0.00,Rainwise IP-100,2013-08-19 09:47:00,
2013-08-19 05:52:00,58.0,33.0,30.09,WSW,247,0.0,1.0,38,0.00,,,0.00,Rainwise IP-100,2013-08-19 09:52:00,
2013-08-19 05:57:00,58.0,32.0,30.10,WSW,247,0.0,0.0,36,0.00,,,0.00,Rainwise IP-100,2013-08-19 09:57:00,
2013-08-19 06:02:00,58.0,38.0,30.10,West,270,0.0,0.0,46,0.00,,,0.00,Rainwise IP-100,2013-08-19 10:02:00,
2013-08-19 06:07:00,58.0,33.0,30.10,West,270,0.0,0.0,38,0.00,,,0.00,Rainwise IP-100,2013-08-19 10:07:00,
2013-08-19 06:12:00,58.0,35.0,30.10,West,270,0.0,0.0,41,0.00,,,0.00,Rainwise IP-100,2013-08-19 10:12:00,
2013-08-19 06:17:00,58.0,35.0,30.10,West,270,0.0,0.0,41,0.00,,,0.00,Rainwise IP-100,2013-08-19 10:17:00,
2013-08-19 06:22:00,58.0,35.0,30.10,NW,315,0.0,0.0,40,0.00,,,0.00,Rainwise IP-100,2013-08-19 10:22:00,
2013-08-19 06:27:00,59.0,37.0,30.10,SSW,202,0.0,1.0,43,0.00,,,0.00,Rainwise IP-100,2013-08-19 10:27:00,
2013-08-19 06:32:00,59.0,35.0,30.10,SSW,202,0.0,2.0,40,0.00,,,0.00,Rainwise IP-100,2013-08-19 10:32:00,
2013-08-19 06:37:00,59.0,33.0,30.10,SW,225,0.0,0.0,38,0.00,,,0.00,Rainwise IP-100,2013-08-19 10:37:00,
2013-08-19 06:42:00,60.0,33.0,30.10,SW,225,0.0,2.0,36,0.00,,,0.00,Rainwise IP-100,2013-08-19 10:42:00,
2013-08-19 06:47:00,60.0,35.0,30.09,SSW,202,0.0,0.0,39,0.00,,,0.00,Rainwise IP-100,2013-08-19 10:47:00,
2013-08-19 06:53:00,61.0,37.0,30.09,SW,225,0.0,2.0,41,0.00,,,0.00,Rainwise IP-100,2013-08-19 10:53:00,
2013-08-19 06:58:00,61.0,37.0,30.09,South,180,0.0,2.0,40,0.00,,,0.00,Rainwise IP-100,2013-08-19 10:58:00,
2013-08-19 07:03:00,61.0,41.0,30.09,SW,225,0.0,7.0,48,0.00,,,0.00,Rainwise IP-100,2013-08-19 11:03:00,
2013-08-19 07:08:00,61.0,37.0,30.08,SW,225,1.0,6.0,41,0.00,,,0.00,Rainwise IP-100,2013-08-19 11:08:00,
2013-08-19 07:13:00,62.0,33.0,30.08,SW,225,0.0,5.0,34,0.00,,,0.00,Rainwise IP-100,2013-08-19 11:13:00,
2013-08-19 07:18:00,62.0,40.0,30.08,SW,225,2.0,3.0,44,0.00,,,0.00,Rainwise IP-100,2013-08-19 11:18:00,
2013-08-19 07:23:00,63.0,39.0,30.08,West,270,0.0,7.0,42,0.00,,,0.00,Rainwise IP-100,2013-08-19 11:23:00,
2013-08-19 07:28:00,63.0,38.0,30.08,SW,225,0.0,7.0,40,0.00,,,0.00,Rainwise IP-100,2013-08-19 11:28:00,
2013-08-19 07:33:00,63.0,38.0,30.08,WNW,292,5.0,7.0,40,0.00,,,0.00,Rainwise IP-100,2013-08-19 11:33:00,
2013-08-19 07:38:00,63.0,38.0,30.08,WNW,292,5.0,7.0,40,0.00,,,0.00,Rainwise IP-100,2013-08-19 11:38:00,
2013-08-19 07:43:00,63.0,38.0,30.08,WNW,292,5.0,7.0,40,0.00,,,0.00,Rainwise IP-100,2013-08-19 11:43:00,
2013-08-19 07:48:00,63.0,38.0,30.08,WNW,292,5.0,7.0,40,0.00,,,0.00,Rainwise IP-100,2013-08-19 11:48:00,
2013-08-19 07:53:00,63.0,38.0,30.08,WSW,247,7.0,7.0,40,0.00,,,0.00,Rainwise IP-100,2013-08-19 11:53:00,
2013-08-19 07:58:00,63.0,38.0,30.08,West,270,6.0,7.0,40,0.00,,,0.00,Rainwise IP-100,2013-08-19 11:58:00,
2013-08-19 08:03:00,63.0,38.0,30.08,WNW,292,5.0,7.0,40,0.00,,,0.00,Rainwise IP-100,2013-08-19 12:03:00,
2013-08-19 08:09:00,63.0,38.0,30.08,WNW,292,5.0,7.0,40,0.00,,,0.00,Rainwise IP-100,2013-08-19 12:09:00,
2013-08-19 08:14:00,63.0,38.0,30.08,WNW,292,5.0,5.0,40,0.00,,,0.00,Rainwise IP-100,2013-08-19 12:14:00,
2013-08-19 08:19:00,66.0,42.0,30.06,SW,225,5.0,5.0,42,0.00,,,0.00,Rainwise IP-100,2013-08-19 12:19:00,
2013-08-19 08:24:00,66.0,42.0,30.06,WSW,247,0.0,5.0,42,0.00,,,0.00,Rainwise IP-100,2013-08-19 12:24:00,
2013-08-19 08:29:00,66.0,41.0,30.06,SW,225,4.0,4.0,40,0.00,,,0.00,Rainwise IP-100,2013-08-19 12:29:00,
2013-08-19 08:34:00,67.0,43.0,30.05,NW,315,3.0,7.0,42,0.00,,,0.00,Rainwise IP-100,2013-08-19 12:34:00,
2013-08-19 08:39:00,67.0,44.0,30.05,West,270,4.0,8.0,43,0.00,,,0.00,Rainwise IP-100,2013-08-19 12:39:00,
2013-08-19 08:44:00,68.0,-23.0,30.05,SW,225,4.0,11.0,0,0.00,,,0.00,Rainwise IP-100,2013-08-19 12:44:00,
2013-08-19 08:49:00,67.0,47.0,30.05,SW,225,3.0,13.0,48,0.00,,,0.00,Rainwise IP-100,2013-08-19 12:49:00,
2013-08-19 08:54:00,68.0,39.0,30.05,West,270,7.0,12.0,35,0.00,,,0.00,Rainwise IP-100,2013-08-19 12:54:00,
2013-08-19 08:59:00,68.0,45.0,30.05,NW,315,2.0,9.0,43,0.00,,,0.00,Rainwise IP-100,2013-08-19 12:59:00,
2013-08-19 09:04:00,68.0,44.0,30.04,NW,315,7.0,13.0,42,0.00,,,0.00,Rainwise IP-100,2013-08-19 13:04:00,
2013-08-19 09:09:00,68.0,46.0,30.04,West,270,7.0,13.0,45,0.00,,,0.00,Rainwise IP-100,2013-08-19 13:09:00,
2013-08-19 09:14:00,68.0,47.0,30.04,WNW,292,12.0,12.0,48,0.00,,,0.00,Rainwise IP-100,2013-08-19 13:14:00,
2013-08-19 09:20:00,68.0,43.0,30.04,WNW,292,1.0,13.0,40,0.00,,,0.00,Rainwise IP-100,2013-08-19 13:20:00,
2013-08-19 09:25:00,68.0,38.0,30.04,NW,315,5.0,13.0,33,0.00,,,0.00,Rainwise IP-100,2013-08-19 13:25:00,
2013-08-19 09:30:00,69.0,38.0,30.04,WNW,292,0.0,9.0,32,0.00,,,0.00,Rainwise IP-100,2013-08-19 13:30:00,
2013-08-19 09:35:00,69.0,44.0,30.04,NW,315,2.0,11.0,41,0.00,,,0.00,Rainwise IP-100,2013-08-19 13:35:00,
2013-08-19 09:40:00,69.0,43.0,30.04,West,270,4.0,12.0,39,0.00,,,0.00,Rainwise IP-100,2013-08-19 13:40:00,
2013-08-19 09:45:00,69.0,46.0,30.04,West,270,2.0,13.0,43,0.00,,,0.00,Rainwise IP-100,2013-08-19 13:45:00,
2013-08-19 09:50:00,70.0,45.0,30.04,West,270,1.0,12.0,40,0.00,,,0.00,Rainwise IP-100,2013-08-19 13:50:00,
2013-08-19 09:55:00,70.0,47.0,30.03,WSW,247,3.0,12.0,45,0.00,,,0.00,Rainwise IP-100,2013-08-19 13:55:00,
2013-08-19 10:00:00,69.0,44.0,30.03,WNW,292,13.0,13.0,41,0.00,,,0.00,Rainwise IP-100,2013-08-19 14:00:00,
2013-08-19 10:05:00,70.0,45.0,30.02,NW,315,6.0,15.0,41,0.00,,,0.00,Rainwise IP-100,2013-08-19 14:05:00,
2013-08-19 10:10:00,70.0,43.0,30.02,WNW,292,5.0,15.0,38,0.00,,,0.00,Rainwise IP-100,2013-08-19 14:10:00,
2013-08-19 10:15:00,70.0,45.0,30.02,WSW,247,6.0,11.0,41,0.00,,,0.00,Rainwise IP-100,2013-08-19 14:15:00,
2013-08-19 10:20:00,71.0,43.0,30.02,NW,315,6.0,12.0,37,0.00,,,0.00,Rainwise IP-100,2013-08-19 14:20:00,
2013-08-19 10:25:00,71.0,42.0,30.01,NW,315,7.0,13.0,36,0.00,,,0.00,Rainwise IP-100,2013-08-19 14:25:00,
2013-08-19 10:30:00,70.0,42.0,30.01,WNW,292,0.0,13.0,37,0.00,,,0.00,Rainwise IP-100,2013-08-19 14:30:00,
2013-08-19 10:36:00,71.0,43.0,30.02,West,270,9.0,15.0,37,0.00,,,0.00,Rainwise IP-100,2013-08-19 14:36:00,
2013-08-19 10:41:00,71.0,41.0,30.02,NW,315,3.0,13.0,34,0.00,,,0.00,Rainwise IP-100,2013-08-19 14:41:00,
2013-08-19 10:46:00,71.0,36.0,30.01,WSW,247,1.0,15.0,27,0.00,,,0.00,Rainwise IP-100,2013-08-19 14:46:00,
2013-08-19 10:51:00,72.0,39.0,30.01,SW,225,2.0,12.0,30,0.00,,,0.00,Rainwise IP-100,2013-08-19 14:51:00,
2013-08-19 10:56:00,71.0,39.0,30.02,WNW,292,7.0,12.0,31,0.00,,,0.00,Rainwise IP-100,2013-08-19 14:56:00,
2013-08-19 11:01:00,71.0,39.0,30.02,NW,315,11.0,15.0,31,0.00,,,0.00,Rainwise IP-100,2013-08-19 15:01:00,
2013-08-19 11:06:00,71.0,38.0,30.01,NW,315,7.0,14.0,30,0.00,,,0.00,Rainwise IP-100,2013-08-19 15:06:00,
2013-08-19 11:11:00,71.0,40.0,30.01,SW,225,8.0,14.0,33,0.00,,,0.00,Rainwise IP-100,2013-08-19 15:11:00,
2013-08-19 11:16:00,72.0,40.0,30.00,NW,315,7.0,12.0,32,0.00,,,0.00,Rainwise IP-100,2013-08-19 15:16:00,
2013-08-19 11:21:00,72.0,40.0,30.00,WSW,247,4.0,13.0,32,0.00,,,0.00,Rainwise IP-100,2013-08-19 15:21:00,
2013-08-19 11:26:00,72.0,46.0,30.00,NW,315,4.0,12.0,39,0.00,,,0.00,Rainwise IP-100,2013-08-19 15:26:00,
2013-08-19 11:31:00,73.0,39.0,30.00,SSW,202,5.0,11.0,29,0.00,,,0.00,Rainwise IP-100,2013-08-19 15:31:00,
2013-08-19 11:36:00,72.0,39.0,30.00,SW,225,7.0,12.0,30,0.00,,,0.00,Rainwise IP-100,2013-08-19 15:36:00,
2013-08-19 11:41:00,73.0,33.0,30.00,NNW,337,2.0,10.0,23,0.00,,,0.00,Rainwise IP-100,2013-08-19 15:41:00,
2013-08-19 11:46:00,73.0,41.0,30.00,West,270,2.0,10.0,32,0.00,,,0.00,Rainwise IP-100,2013-08-19 15:46:00,
2013-08-19 11:52:00,73.0,41.0,30.00,NW,315,0.0,10.0,32,0.00,,,0.00,Rainwise IP-100,2013-08-19 15:52:00,
2013-08-19 11:57:00,73.0,31.0,30.00,West,270,2.0,12.0,21,0.00,,,0.00,Rainwise IP-100,2013-08-19 15:57:00,
2013-08-19 12:02:00,73.0,16.0,30.00,West,270,4.0,12.0,11,0.00,,,0.00,Rainwise IP-100,2013-08-19 16:02:00,
2013-08-19 12:07:00,73.0,32.0,30.00,NW,315,4.0,13.0,22,0.00,,,0.00,Rainwise IP-100,2013-08-19 16:07:00,
2013-08-19 12:12:00,73.0,36.0,30.00,SW,225,6.0,11.0,25,0.00,,,0.00,Rainwise IP-100,2013-08-19 16:12:00,
2013-08-19 12:17:00,73.0,11.0,30.00,SW,225,0.0,10.0,8,0.00,,,0.00,Rainwise IP-100,2013-08-19 16:17:00,
2013-08-19 12:22:00,73.0,35.0,30.00,SW,225,6.0,8.0,24,0.00,,,0.00,Rainwise IP-100,2013-08-19 16:22:00,
2013-08-19 12:27:00,73.0,36.0,30.00,SW,225,3.0,10.0,26,0.00,,,0.00,Rainwise IP-100,2013-08-19 16:27:00,
2013-08-19 12:32:00,72.0,39.0,30.00,NW,315,7.0,11.0,30,0.00,,,0.00,Rainwise IP-100,2013-08-19 16:32:00,
2013-08-19 12:37:00,72.0,40.0,30.00,SW,225,2.0,9.0,32,0.00,,,0.00,Rainwise IP-100,2013-08-19 16:37:00,
2013-08-19 12:42:00,72.0,38.0,30.00,WSW,247,1.0,10.0,29,0.00,,,0.00,Rainwise IP-100,2013-08-19 16:42:00,
2013-08-19 12:47:00,72.0,24.0,30.00,WNW,292,3.0,10.0,16,0.00,,,0.00,Rainwise IP-100,2013-08-19 16:47:00,
2013-08-19 12:52:00,71.0,36.0,30.00,WNW,292,6.0,14.0,27,0.00,,,0.00,Rainwise IP-100,2013-08-19 16:52:00,
2013-08-19 12:57:00,71.0,39.0,30.00,WNW,292,4.0,14.0,32,0.00,,,0.00,Rainwise IP-100,2013-08-19 16:57:00,
2013-08-19 13:02:00,71.0,38.0,30.00,WNW,292,1.0,12.0,30,0.00,,,0.00,Rainwise IP-100,2013-08-19 17:02:00,
2013-08-19 13:08:00,72.0,39.0,29.99,WNW,292,5.0,10.0,30,0.00,,,0.00,Rainwise IP-100,2013-08-19 17:08:00,
2013-08-19 13:13:00,72.0,33.0,29.99,WSW,247,8.0,11.0,24,0.00,,,0.00,Rainwise IP-100,2013-08-19 17:13:00,
2013-08-19 13:18:00,73.0,40.0,29.99,SSW,202,3.0,10.0,31,0.00,,,0.00,Rainwise IP-100,2013-08-19 17:18:00,
2013-08-19 13:23:00,73.0,40.0,29.99,WNW,292,6.0,10.0,31,0.00,,,0.00,Rainwise IP-100,2013-08-19 17:23:00,
2013-08-19 13:28:00,73.0,41.0,29.99,SW,225,9.0,11.0,32,0.00,,,0.00,Rainwise IP-100,2013-08-19 17:28:00,
2013-08-19 13:33:00,74.0,-23.0,29.98,NNW,337,0.0,13.0,0,0.00,,,0.00,Rainwise IP-100,2013-08-19 17:33:00,
2013-08-19 13:38:00,75.0,31.0,29.98,SSW,202,7.0,10.0,19,0.00,,,0.00,Rainwise IP-100,2013-08-19 17:38:00,
2013-08-19 13:43:00,74.0,4.0,29.98,NW,315,7.0,11.0,6,0.00,,,0.00,Rainwise IP-100,2013-08-19 17:43:00,
2013-08-19 13:48:00,75.0,36.0,29.98,NW,315,1.0,11.0,24,0.00,,,0.00,Rainwise IP-100,2013-08-19 17:48:00,
2013-08-19 13:53:00,75.0,-6.0,29.98,SW,225,3.0,15.0,3,0.00,,,0.00,Rainwise IP-100,2013-08-19 17:53:00,
2013-08-19 13:58:00,75.0,11.0,29.98,WSW,247,8.0,9.0,8,0.00,,,0.00,Rainwise IP-100,2013-08-19 17:58:00,
2013-08-19 14:03:00,74.0,-23.0,29.98,SW,225,0.0,14.0,0,0.00,,,0.00,Rainwise IP-100,2013-08-19 18:03:00,
2013-08-19 14:08:00,74.0,35.0,29.98,NNW,337,0.0,12.0,24,0.00,,,0.00,Rainwise IP-100,2013-08-19 18:08:00,
2013-08-19 14:13:00,74.0,-23.0,29.98,SW,225,6.0,10.0,0,0.00,,,0.00,Rainwise IP-100,2013-08-19 18:13:00,
2013-08-19 14:18:00,73.0,16.0,29.98,West,270,2.0,11.0,11,0.00,,,0.00,Rainwise IP-100,2013-08-19 18:18:00,
2013-08-19 14:24:00,73.0,-23.0,29.98,WNW,292,5.0,12.0,0,0.00,,,0.00,Rainwise IP-100,2013-08-19 18:24:00,
2013-08-19 14:29:00,73.0,4.0,29.98,SSW,202,7.0,12.0,6,0.00,,,0.00,Rainwise IP-100,2013-08-19 18:29:00,
2013-08-19 14:34:00,73.0,-23.0,29.98,SW,225,4.0,12.0,1,0.00,,,0.00,Rainwise IP-100,2013-08-19 18:34:00,
2013-08-19 14:39:00,73.0,40.0,29.98,West,270,2.0,11.0,30,0.00,,,0.00,Rainwise IP-100,2013-08-19 18:39:00,
2013-08-19 14:44:00,73.0,-6.0,29.97,SW,225,7.0,11.0,4,0.00,,,0.00,Rainwise IP-100,2013-08-19 18:44:00,
2013-08-19 14:49:00,72.0,31.0,29.97,WSW,247,5.0,10.0,22,0.00,,,0.00,Rainwise IP-100,2013-08-19 18:49:00,
2013-08-19 14:54:00,72.0,36.0,29.98,WNW,292,4.0,13.0,27,0.00,,,0.00,Rainwise IP-100,2013-08-19 18:54:00,
2013-08-19 14:59:00,72.0,18.0,29.98,SW,225,2.0,9.0,13,0.00,,,0.00,Rainwise IP-100,2013-08-19 18:59:00,
2013-08-19 15:04:00,72.0,11.0,29.97,SW,225,0.0,9.0,9,0.00,,,0.00,Rainwise IP-100,2013-08-19 19:04:00,
2013-08-19 15:09:00,72.0,18.0,29.97,WSW,247,7.0,10.0,13,0.00,,,0.00,Rainwise IP-100,2013-08-19 19:09:00,
2013-08-19 15:14:00,72.0,11.0,29.97,SSW,202,13.0,13.0,9,0.00,,,0.00,Rainwise IP-100,2013-08-19 19:14:00,
2013-08-19 15:19:00,72.0,31.0,29.97,WNW,292,0.0,13.0,22,0.00,,,0.00,Rainwise IP-100,2013-08-19 19:19:00,
2013-08-19 15:24:00,72.0,36.0,29.97,WSW,247,5.0,10.0,26,0.00,,,0.00,Rainwise IP-100,2013-08-19 19:24:00,
2013-08-19 15:29:00,72.0,36.0,29.97,NW,315,3.0,10.0,27,0.00,,,0.00,Rainwise IP-100,2013-08-19 19:29:00,
2013-08-19 15:34:00,71.0,18.0,29.97,SW,225,1.0,12.0,13,0.00,,,0.00,Rainwise IP-100,2013-08-19 19:34:00,
2013-08-19 15:40:00,71.0,39.0,29.97,WSW,247,5.0,10.0,32,0.00,,,0.00,Rainwise IP-100,2013-08-19 19:40:00,
2013-08-19 15:45:00,71.0,-23.0,29.98,SSW,202,0.0,12.0,0,0.00,,,0.00,Rainwise IP-100,2013-08-19 19:45:00,
2013-08-19 15:50:00,70.0,41.0,29.98,SW,225,2.0,12.0,35,0.00,,,0.00,Rainwise IP-100,2013-08-19 19:50:00,
2013-08-19 15:55:00,71.0,24.0,29.98,WSW,247,0.0,11.0,17,0.00,,,0.00,Rainwise IP-100,2013-08-19 19:55:00,
2013-08-19 16:00:00,70.0,39.0,29.98,NNW,337,0.0,9.0,32,0.00,,,0.00,Rainwise IP-100,2013-08-19 20:00:00,
2013-08-19 16:05:00,71.0,33.0,29.97,West,270,0.0,9.0,25,0.00,,,0.00,Rainwise IP-100,2013-08-19 20:05:00,
2013-08-19 16:10:00,71.0,38.0,29.97,WNW,292,6.0,12.0,30,0.00,,,0.00,Rainwise IP-100,2013-08-19 20:10:00,
2013-08-19 16:15:00,71.0,40.0,29.96,SW,225,6.0,12.0,33,0.00,,,0.00,Rainwise IP-100,2013-08-19 20:15:00,
2013-08-19 16:20:00,71.0,39.0,29.96,SW,225,0.0,7.0,31,0.00,,,0.00,Rainwise IP-100,2013-08-19 20:20:00,
2013-08-19 16:25:00,71.0,40.0,29.96,SW,225,0.0,11.0,33,0.00,,,0.00,Rainwise IP-100,2013-08-19 20:25:00,
2013-08-19 16:30:00,71.0,39.0,29.96,SW,225,3.0,11.0,32,0.00,,,0.00,Rainwise IP-100,2013-08-19 20:30:00,
2013-08-19 16:35:00,71.0,41.0,29.96,North,360,6.0,12.0,34,0.00,,,0.00,Rainwise IP-100,2013-08-19 20:35:00,
2013-08-19 16:40:00,71.0,43.0,29.96,SW,225,7.0,12.0,37,0.00,,,0.00,Rainwise IP-100,2013-08-19 20:40:00,
2013-08-19 16:45:00,71.0,38.0,29.96,WSW,247,9.0,12.0,30,0.00,,,0.00,Rainwise IP-100,2013-08-19 20:45:00,
2013-08-19 16:50:00,71.0,43.0,29.96,North,360,0.0,11.0,37,0.00,,,0.00,Rainwise IP-100,2013-08-19 20:50:00,
2013-08-19 16:56:00,71.0,38.0,29.96,SW,225,5.0,11.0,30,0.00,,,0.00,Rainwise IP-100,2013-08-19 20:56:00,
2013-08-19 17:01:00,71.0,41.0,29.96,West,270,2.0,15.0,34,0.00,,,0.00,Rainwise IP-100,2013-08-19 21:01:00,
2013-08-19 17:06:00,70.0,39.0,29.96,WSW,247,4.0,10.0,32,0.00,,,0.00,Rainwise IP-100,2013-08-19 21:06:00,
2013-08-19 17:11:00,70.0,39.0,29.96,West,270,0.0,10.0,32,0.00,,,0.00,Rainwise IP-100,2013-08-19 21:11:00,
2013-08-19 17:16:00,70.0,41.0,29.96,North,360,0.0,11.0,35,0.00,,,0.00,Rainwise IP-100,2013-08-19 21:16:00,
2013-08-19 17:21:00,70.0,39.0,29.96,SW,225,6.0,9.0,32,0.00,,,0.00,Rainwise IP-100,2013-08-19 21:21:00,
2013-08-19 17:26:00,70.0,42.0,29.97,NW,315,2.0,10.0,36,0.00,,,0.00,Rainwise IP-100,2013-08-19 21:26:00,
2013-08-19 17:31:00,70.0,44.0,29.97,West,270,2.0,6.0,39,0.00,,,0.00,Rainwise IP-100,2013-08-19 21:31:00,
2013-08-19 17:36:00,70.0,40.0,29.97,SSW,202,9.0,10.0,34,0.00,,,0.00,Rainwise IP-100,2013-08-19 21:36:00,
2013-08-19 17:41:00,70.0,40.0,29.97,SSW,202,2.0,9.0,34,0.00,,,0.00,Rainwise IP-100,2013-08-19 21:41:00,
2013-08-19 17:46:00,70.0,40.0,29.97,SW,225,0.0,9.0,34,0.00,,,0.00,Rainwise IP-100,2013-08-19 21:46:00,
2013-08-19 17:51:00,69.0,45.0,29.97,North,360,0.0,9.0,42,0.00,,,0.00,Rainwise IP-100,2013-08-19 21:51:00,
2013-08-19 17:56:00,69.0,48.0,29.98,SSW,202,0.0,10.0,48,0.00,,,0.00,Rainwise IP-100,2013-08-19 21:56:00,
2013-08-19 18:01:00,69.0,48.0,29.98,SSW,202,1.0,10.0,48,0.00,,,0.00,Rainwise IP-100,2013-08-19 22:01:00,
2013-08-19 18:06:00,69.0,48.0,29.97,NW,315,0.0,6.0,48,0.00,,,0.00,Rainwise IP-100,2013-08-19 22:06:00,
2013-08-19 18:12:00,69.0,48.0,29.97,NW,315,0.0,6.0,48,0.00,,,0.00,Rainwise IP-100,2013-08-19 22:12:00,
2013-08-19 18:17:00,69.0,48.0,29.97,NW,315,0.0,4.0,48,0.00,,,0.00,Rainwise IP-100,2013-08-19 22:17:00,
2013-08-19 18:22:00,69.0,48.0,29.98,South,180,0.0,6.0,48,0.00,,,0.00,Rainwise IP-100,2013-08-19 22:22:00,
2013-08-19 18:27:00,69.0,48.0,29.98,South,180,0.0,6.0,48,0.00,,,0.00,Rainwise IP-100,2013-08-19 22:27:00,
2013-08-19 18:32:00,69.0,48.0,29.98,SSW,202,6.0,6.0,48,0.00,,,0.00,Rainwise IP-100,2013-08-19 22:32:00,
2013-08-19 18:37:00,69.0,48.0,29.98,SE,135,1.0,6.0,48,0.00,,,0.00,Rainwise IP-100,2013-08-19 22:37:00,
2013-08-19 18:42:00,68.0,42.0,29.98,SSW,202,6.0,6.0,39,0.00,,,0.00,Rainwise IP-100,2013-08-19 22:42:00,
2013-08-19 18:47:00,68.0,42.0,29.98,South,180,5.0,6.0,39,0.00,,,0.00,Rainwise IP-100,2013-08-19 22:47:00,
2013-08-19 18:52:00,68.0,43.0,29.98,SW,225,1.0,6.0,40,0.00,,,0.00,Rainwise IP-100,2013-08-19 22:52:00,
2013-08-19 18:57:00,68.0,49.0,29.98,NE,45,0.0,4.0,50,0.00,,,0.00,Rainwise IP-100,2013-08-19 22:57:00,
2013-08-19 19:02:00,68.0,43.0,29.98,WNW,292,0.0,11.0,41,0.00,,,0.00,Rainwise IP-100,2013-08-19 23:02:00,
2013-08-19 19:07:00,68.0,45.0,29.99,WSW,247,5.0,5.0,43,0.00,,,0.00,Rainwise IP-100,2013-08-19 23:07:00,
2013-08-19 19:12:00,68.0,45.0,29.99,SW,225,3.0,7.0,43,0.00,,,0.00,Rainwise IP-100,2013-08-19 23:12:00,
2013-08-19 19:17:00,68.0,45.0,29.99,SW,225,5.0,7.0,43,0.00,,,0.00,Rainwise IP-100,2013-08-19 23:17:00,
2013-08-19 19:22:00,68.0,49.0,29.99,WSW,247,8.0,9.0,51,0.00,,,0.00,Rainwise IP-100,2013-08-19 23:22:00,
2013-08-19 19:28:00,68.0,49.0,29.99,WSW,247,4.0,9.0,51,0.00,,,0.00,Rainwise IP-100,2013-08-19 23:28:00,
2013-08-19 19:33:00,68.0,48.0,29.99,WSW,247,0.0,9.0,49,0.00,,,0.00,Rainwise IP-100,2013-08-19 23:33:00,
2013-08-19 19:38:00,68.0,42.0,29.99,SW,225,1.0,6.0,39,0.00,,,0.00,Rainwise IP-100,2013-08-19 23:38:00,
2013-08-19 19:43:00,68.0,50.0,29.99,NW,315,2.0,10.0,52,0.00,,,0.00,Rainwise IP-100,2013-08-19 23:43:00,
2013-08-19 19:48:00,67.0,46.0,29.99,North,360,5.0,10.0,47,0.00,,,0.00,Rainwise IP-100,2013-08-19 23:48:00,
2013-08-19 19:53:00,67.0,43.0,29.99,WSW,247,2.0,5.0,42,0.00,,,0.00,Rainwise IP-100,2013-08-19 23:53:00,
2013-08-19 19:58:00,67.0,45.0,29.99,West,270,2.0,5.0,45,0.00,,,0.00,Rainwise IP-100,2013-08-19 23:58:00,
2013-08-19 20:03:00,67.0,41.0,29.99,WNW,292,0.0,2.0,39,0.00,,,0.00,Rainwise IP-100,2013-08-20 00:03:00,
2013-08-19 20:08:00,67.0,41.0,29.99,NW,315,0.0,2.0,39,0.00,,,0.00,Rainwise IP-100,2013-08-20 00:08:00,
2013-08-19 20:13:00,67.0,50.0,30.00,SW,225,6.0,6.0,55,0.00,,,0.00,Rainwise IP-100,2013-08-20 00:13:00,
2013-08-19 20:18:00,67.0,50.0,30.00,SSW,202,4.0,9.0,55,0.00,,,0.00,Rainwise IP-100,2013-08-20 00:18:00,
2013-08-19 20:23:00,67.0,45.0,30.00,WNW,292,6.0,9.0,45,0.00,,,0.00,Rainwise IP-100,2013-08-20 00:23:00,
2013-08-19 20:28:00,67.0,46.0,29.99,NW,315,3.0,8.0,47,0.00,,,0.00,Rainwise IP-100,2013-08-20 00:28:00,
2013-08-19 20:33:00,67.0,48.0,29.99,SSW,202,3.0,8.0,50,0.00,,,0.00,Rainwise IP-100,2013-08-20 00:33:00,
2013-08-19 20:38:00,67.0,48.0,29.99,WSW,247,3.0,3.0,50,0.00,,,0.00,Rainwise IP-100,2013-08-20 00:38:00,
2013-08-19 20:44:00,67.0,48.0,29.99,West,270,2.0,3.0,50,0.00,,,0.00,Rainwise IP-100,2013-08-20 00:44:00,
2013-08-19 20:49:00,67.0,44.0,29.99,NW,315,7.0,7.0,43,0.00,,,0.00,Rainwise IP-100,2013-08-20 00:49:00,
2013-08-19 20:54:00,67.0,44.0,29.99,NW,315,6.0,9.0,43,0.00,,,0.00,Rainwise IP-100,2013-08-20 00:54:00,
2013-08-19 20:59:00,67.0,46.0,29.99,SW,225,0.0,6.0,47,0.00,,,0.00,Rainwise IP-100,2013-08-20 00:59:00,
2013-08-19 21:04:00,67.0,44.0,29.99,NW,315,2.0,6.0,44,0.00,,,0.00,Rainwise IP-100,2013-08-20 01:04:00,
2013-08-19 21:09:00,67.0,43.0,30.00,NW,315,1.0,5.0,42,0.00,,,0.00,Rainwise IP-100,2013-08-20 01:09:00,
2013-08-19 21:14:00,67.0,42.0,30.00,NW,315,7.0,9.0,40,0.00,,,0.00,Rainwise IP-100,2013-08-20 01:14:00,
2013-08-19 21:19:00,67.0,45.0,30.00,WNW,292,0.0,9.0,45,0.00,,,0.00,Rainwise IP-100,2013-08-20 01:19:00,
2013-08-19 21:24:00,67.0,53.0,30.00,NW,315,8.0,8.0,61,0.00,,,0.00,Rainwise IP-100,2013-08-20 01:24:00,
2013-08-19 21:29:00,67.0,48.0,30.00,WSW,247,0.0,8.0,50,0.00,,,0.00,Rainwise IP-100,2013-08-20 01:29:00,
2013-08-19 21:34:00,67.0,48.0,30.00,WNW,292,1.0,2.0,50,0.00,,,0.00,Rainwise IP-100,2013-08-20 01:34:00,
2013-08-19 21:39:00,67.0,43.0,30.00,West,270,0.0,7.0,42,0.00,,,0.00,Rainwise IP-100,2013-08-20 01:39:00,
2013-08-19 21:44:00,67.0,43.0,30.00,West,270,0.0,7.0,42,0.00,,,0.00,Rainwise IP-100,2013-08-20 01:44:00,
2013-08-19 21:49:00,67.0,43.0,30.00,NW,315,7.0,7.0,42,0.00,,,0.00,Rainwise IP-100,2013-08-20 01:49:00,
2013-08-19 21:54:00,67.0,46.0,29.99,WSW,247,4.0,7.0,47,0.00,,,0.00,Rainwise IP-100,2013-08-20 01:54:00,
2013-08-19 22:00:00,67.0,46.0,29.99,WSW,247,4.0,7.0,47,0.00,,,0.00,Rainwise IP-100,2013-08-20 02:00:00,
2013-08-19 22:05:00,67.0,45.0,29.99,West,270,0.0,7.0,45,0.00,,,0.00,Rainwise IP-100,2013-08-20 02:05:00,
2013-08-19 22:10:00,67.0,43.0,29.99,West,270,2.0,6.0,42,0.00,,,0.00,Rainwise IP-100,2013-08-20 02:10:00,
2013-08-19 22:15:00,67.0,43.0,29.99,WNW,292,4.0,4.0,42,0.00,,,0.00,Rainwise IP-100,2013-08-20 02:15:00,
2013-08-19 22:20:00,67.0,41.0,29.99,SW,225,0.0,7.0,39,0.00,,,0.00,Rainwise IP-100,2013-08-20 02:20:00,
2013-08-19 22:25:00,68.0,46.0,29.99,NNW,337,2.0,7.0,45,0.00,,,0.00,Rainwise IP-100,2013-08-20 02:25:00,
2013-08-19 22:30:00,68.0,42.0,29.99,WNW,292,1.0,7.0,39,0.00,,,0.00,Rainwise IP-100,2013-08-20 02:30:00,
2013-08-19 22:35:00,68.0,41.0,29.99,NNW,337,0.0,6.0,37,0.00,,,0.00,Rainwise IP-100,2013-08-20 02:35:00,
2013-08-19 22:40:00,68.0,41.0,29.99,North,360,0.0,7.0,37,0.00,,,0.00,Rainwise IP-100,2013-08-20 02:40:00,
2013-08-19 22:45:00,68.0,41.0,29.99,North,360,0.0,6.0,37,0.00,,,0.00,Rainwise IP-100,2013-08-20 02:45:00,
2013-08-19 22:50:00,68.0,43.0,29.99,NW,315,1.0,6.0,41,0.00,,,0.00,Rainwise IP-100,2013-08-20 02:50:00,
2013-08-19 22:55:00,68.0,43.0,29.99,South,180,1.0,3.0,40,0.00,,,0.00,Rainwise IP-100,2013-08-20 02:55:00,
2013-08-19 23:00:00,68.0,38.0,29.99,WSW,247,0.0,2.0,34,0.00,,,0.00,Rainwise IP-100,2013-08-20 03:00:00,
2013-08-19 23:05:00,68.0,38.0,29.99,West,270,4.0,4.0,34,0.00,,,0.00,Rainwise IP-100,2013-08-20 03:05:00,
2013-08-19 23:10:00,68.0,38.0,29.99,NNW,337,3.0,4.0,34,0.00,,,0.00,Rainwise IP-100,2013-08-20 03:10:00,
2013-08-19 23:16:00,68.0,43.0,29.99,WNW,292,0.0,4.0,41,0.00,,,0.00,Rainwise IP-100,2013-08-20 03:16:00,
2013-08-19 23:21:00,67.0,40.0,29.99,West,270,3.0,7.0,37,0.00,,,0.00,Rainwise IP-100,2013-08-20 03:21:00,
2013-08-19 23:26:00,67.0,42.0,30.00,WSW,247,2.0,7.0,40,0.00,,,0.00,Rainwise IP-100,2013-08-20 03:26:00,
2013-08-19 23:31:00,67.0,42.0,30.00,North,360,0.0,3.0,40,0.00,,,0.00,Rainwise IP-100,2013-08-20 03:31:00,
2013-08-19 23:36:00,67.0,42.0,30.00,WNW,292,0.0,3.0,40,0.00,,,0.00,Rainwise IP-100,2013-08-20 03:36:00,
2013-08-19 23:41:00,67.0,39.0,30.00,West,270,3.0,3.0,36,0.00,,,0.00,Rainwise IP-100,2013-08-20 03:41:00,
2013-08-19 23:46:00,67.0,44.0,30.00,WNW,292,0.0,3.0,44,0.00,,,0.00,Rainwise IP-100,2013-08-20 03:46:00,
2013-08-19 23:51:00,67.0,44.0,30.00,West,270,0.0,3.0,44,0.00,,,0.00,Rainwise IP-100,2013-08-20 03:51:00,
2013-08-19 23:56:00,67.0,38.0,29.99,WNW,292,6.0,7.0,35,0.00,,,0.00,Rainwise IP-100,2013-08-20 03:56:00,